This demonstration page uses our WeatherBlox Daily Observations layout. Learn more.

Left ArrowRight Arrow

Hourly Observations for June 2, 2019

Temp ( °F °C ) Dew Point ( °F °C ) Humidity (%) Winds ( mph kmh ) Pressure ( in mb ) Visibility ( mi km ) Precip ( " mm )
12:56 am 00:56 Clear 64 18 50 10 60 60 NNW 9 15 29.93 1014 7 11 0.00 0.00
1:56 am 01:56 Clear 64 18 50 10 60 60 NW 7 11 29.94 1014 7 11 0.00 0.00
2:56 am 02:56 Clear 61 16 50 10 68 68 Calm 29.96 1014 7 11 0.00 0.00
3:56 am 03:56 Clear 59 15 50 10 72 72 N 5 7 29.96 1015 7 11 0.00 0.00
4:56 am 04:56 Clear 57 14 50 10 77 77 N 5 7 29.96 1015 7 11 0.00 0.00
5:56 am 05:56 Sunny 55 13 50 10 82 82 NNE 5 7 29.96 1015 7 11 0.00 0.00
6:56 am 06:56 Sunny 57 14 50 10 77 77 N 3 6 29.99 1016 7 11 0.00 0.00
7:56 am 07:56 Mostly Sunny 63 17 46 8 56 56 ENE 3 6 30.04 1017 7 11 0.00 0.00
8:56 am 08:56 Mostly Sunny 64 18 43 6 46 46 ENE 3 6 30.03 1017 7 11 0.00 0.00
9:56 am 09:56 Sunny 68 20 45 7 43 43 Calm 30.03 1017 7 11 0.00 0.00
10:56 am 10:56 Mostly Sunny 70 21 43 6 38 38 Calm 30.03 1017 7 11 0.00 0.00
11:56 am 11:56 Mostly Sunny 72 22 43 6 36 36 SE 3 6 30.02 1017 7 11 0.00 0.00
12:56 pm 12:56 Mostly Sunny 75 24 41 5 29 29 Calm 30.02 1017 7 11 0.00 0.00
1:56 pm 13:56 Mostly Sunny 75 24 39 4 27 27 SSE 6 9 30.00 1016 7 11 0.00 0.00
2:56 pm 14:56 Mostly Sunny 77 25 41 5 28 28 ESE 3 6 29.99 1016 7 11 0.00 0.00
3:56 pm 15:56 Sunny 77 25 39 4 26 26 SE 5 7 29.98 1015 7 11 0.00 0.00
4:56 pm 16:56 Sunny 77 25 39 4 26 26 VRB 3 6 29.98 1015 7 11 0.00 0.00
5:56 pm 17:56 Sunny 77 25 41 5 28 28 VRB 2 4 29.97 1015 7 11 0.00 0.00
6:56 pm 18:56 Sunny N/A N/A N/A SE 6 9 N/A N/A 0.00 0.00
7:56 pm 19:56 Sunny N/A N/A N/A SE 6 9 N/A N/A 0.00 0.00
8:56 pm 20:56 Clear 73 23 48 9 41 41 E 3 6 29.92 1013 7 11 0.00 0.00
9:56 pm 21:56 Clear 72 22 52 11 50 50 ESE 3 6 29.95 1014 7 11 0.00 0.00
10:56 pm 22:56 Mostly Cloudy 72 22 48 9 44 44 SSE 7 11 29.97 1015 7 11 0.00 0.00
11:56 pm 23:56 Mostly Cloudy 68 20 50 10 53 53 SSE 12 19 29.96 1015 7 11 0.00 0.00

Powered by AerisWeather